• In Romania
  • List of Countries
  • For 7 days
  • Water Temperature
  • Satellite Maps
  • Weather Map
  • Weather Widgets
  • user-avatar
    Login

    Hourly Weather Verhnee Chuevo

    Today, 19 July, Thursday

    Time Temperature Precipitation Wind Pressure Humidity
    00:00 +18°C° 0.1 mm 4 mps 737 mmHg 92%
    01:00 +18°C° 0.1 mm 4 mps 737 mmHg 93%
    02:00 +18°C° 0.1 mm 4 mps 737 mmHg 93%
    03:00 +18°C° 0 mm 3 mps 737 mmHg 95%
    04:00 +18°C° 0.2 mm 4 mps 737 mmHg 94%
    05:00 +19°C° 0.2 mm 4 mps 738 mmHg 92%
    06:00 +19°C° 0.2 mm 4 mps 738 mmHg 91%
    07:00 +21°C° 0.1 mm 4 mps 738 mmHg 86%
    08:00 +22°C° 0.1 mm 5 mps 738 mmHg 82%
    09:00 +23°C° 0 mm 5 mps 738 mmHg 78%
    10:00 +25°C° 0.1 mm 5 mps 739 mmHg 74%
    11:00 +26°C° 0.1 mm 6 mps 739 mmHg 69%
    12:00 +27°C° 0.1 mm 6 mps 739 mmHg 65%
    13:00 +27°C° 0.2 mm 6 mps 739 mmHg 65%
    14:00 +28°C° 0.2 mm 6 mps 739 mmHg 64%
    15:00 +28°C° 0.2 mm 6 mps 739 mmHg 63%
    16:00 +28°C° 0.6 mm 5 mps 739 mmHg 67%
    17:00 +27°C° 0.6 mm 4 mps 739 mmHg 72%
    18:00 +27°C° 0.6 mm 3 mps 740 mmHg 76%
    19:00 +25°C° 0.3 mm 3 mps 740 mmHg 79%
    20:00 +24°C° 0.3 mm 3 mps 740 mmHg 82%
    21:00 +22°C° 0.3 mm 3 mps 740 mmHg 85%
    22:00 +21°C° 0.4 mm 3 mps 740 mmHg 86%
    23:00 +21°C° 0.4 mm 3 mps 740 mmHg 88%

    Tomorrow, 20 July, Friday

    Time Temperature Precipitation Wind Pressure Humidity
    00:00 +20°C° 0.4 mm 3 mps 740 mmHg 89%
    01:00 +20°C° 0.3 mm 3 mps 740 mmHg 90%
    02:00 +20°C° 0.3 mm 3 mps 740 mmHg 91%
    03:00 +20°C° 0.3 mm 3 mps 740 mmHg 92%
    04:00 +20°C° 0 mm 3 mps 740 mmHg 91%
    05:00 +20°C° 0 mm 3 mps 740 mmHg 90%
    06:00 +20°C° 0 mm 3 mps 740 mmHg 89%
    07:00 +22°C° 0.4 mm 3 mps 740 mmHg 85%
    08:00 +23°C° 0.4 mm 4 mps 740 mmHg 81%
    09:00 +26°C° 0.4 mm 4 mps 741 mmHg 77%
    10:00 +27°C° 1.2 mm 3 mps 740 mmHg 73%
    11:00 +28°C° 1.2 mm 3 mps 740 mmHg 69%
    12:00 +29°C° 1.2 mm 2 mps 740 mmHg 65%
    13:00 +29°C° 1.4 mm 2 mps 740 mmHg 65%
    14:00 +28°C° 1.4 mm 3 mps 740 mmHg 66%
    15:00 +28°C° 1.4 mm 3 mps 740 mmHg 66%
    16:00 +27°C° 0.4 mm 3 mps 740 mmHg 72%
    17:00 +26°C° 0.4 mm 3 mps 740 mmHg 77%
    18:00 +25°C° 0.4 mm 3 mps 740 mmHg 83%
    19:00 +24°C° 0 mm 3 mps 740 mmHg 85%
    20:00 +23°C° 0 mm 2 mps 740 mmHg 87%
    21:00 +21°C° 0 mm 2 mps 740 mmHg 90%
    22:00 +21°C° 0 mm 2 mps 740 mmHg 91%
    23:00 +20°C° 0 mm 2 mps 740 mmHg 92%

    Day after tomorrow, 21 July, Saturday

    Time Temperature Precipitation Wind Pressure Humidity
    00:00 +20°C° 0 mm 2 mps 740 mmHg 93%
    01:00 +20°C° 0 mm 2 mps 740 mmHg 93%
    02:00 +19°C° 0 mm 2 mps 740 mmHg 94%
    03:00 +19°C° 0 mm 2 mps 740 mmHg 94%
    04:00 +19°C° 0 mm 2 mps 740 mmHg 94%
    05:00 +20°C° 0 mm 2 mps 740 mmHg 93%
    06:00 +20°C° 0 mm 2 mps 741 mmHg 92%
    07:00 +21°C° 0 mm 3 mps 741 mmHg 86%
    08:00 +24°C° 0 mm 3 mps 741 mmHg 81%
    09:00 +26°C° 0 mm 3 mps 741 mmHg 75%
    10:00 +27°C° 0.4 mm 3 mps 741 mmHg 71%
    11:00 +28°C° 0.4 mm 3 mps 741 mmHg 68%
    12:00 +29°C° 0.4 mm 3 mps 741 mmHg 64%
    13:00 +29°C° 0.9 mm 3 mps 741 mmHg 63%
    14:00 +29°C° 0.9 mm 3 mps 741 mmHg 62%
    15:00 +29°C° 0.9 mm 3 mps 741 mmHg 62%
    16:00 +28°C° 1 mm 3 mps 741 mmHg 66%
    17:00 +28°C° 1 mm 2 mps 741 mmHg 71%
    18:00 +27°C° 1 mm 2 mps 741 mmHg 75%
    19:00 +26°C° 0.1 mm 2 mps 741 mmHg 79%
    20:00 +24°C° 0.1 mm 2 mps 741 mmHg 83%
    21:00 +23°C° 0.1 mm 2 mps 741 mmHg 87%
    22:00 +21°C° 0 mm 2 mps 741 mmHg 89%
    23:00 +21°C° 0 mm 2 mps 741 mmHg 90%

    22 July, Sunday

    Time Temperature Precipitation Wind Pressure Humidity
    00:00 +22°C° 0 mm 1 mps 741 mmHg 91%
    01:00 +21°C° 0.1 mm 1 mps 741 mmHg 92%
    02:00 +20°C° 0.1 mm 2 mps 741 mmHg 92%
    03:00 +20°C° 0.1 mm 2 mps 741 mmHg 93%
    04:00 +20°C° 0 mm 2 mps 741 mmHg 92%
    05:00 +21°C° 0 mm 2 mps 741 mmHg 91%
    06:00 +21°C° 0 mm 2 mps 741 mmHg 90%
    07:00 +24°C° 0 mm 2 mps 741 mmHg 85%
    08:00 +25°C° 0 mm 2 mps 741 mmHg 79%
    09:00 +27°C° 0 mm 2 mps 741 mmHg 74%
    10:00 +28°C° 1.2 mm 2 mps 741 mmHg 70%
    11:00 +28°C° 1.2 mm 2 mps 741 mmHg 66%
    12:00 +29°C° 1.2 mm 2 mps 741 mmHg 62%
    13:00 +30°C° 0.5 mm 2 mps 741 mmHg 61%
    14:00 +30°C° 0.5 mm 2 mps 741 mmHg 60%
    15:00 +30°C° 0.5 mm 2 mps 741 mmHg 58%
    16:00 +30°C° 0.3 mm 2 mps 741 mmHg 62%
    17:00 +30°C° 0.3 mm 2 mps 741 mmHg 66%
    18:00 +29°C° 0.3 mm 2 mps 741 mmHg 70%
    19:00 +28°C° 0.4 mm 2 mps 741 mmHg 74%
    20:00 +26°C° 0.4 mm 2 mps 741 mmHg 79%
    21:00 +24°C° 0.4 mm 2 mps 741 mmHg 83%
    22:00 +24°C° 0.1 mm 2 mps 741 mmHg 85%
    23:00 +23°C° 0.1 mm 2 mps 741 mmHg 87%

    23 July, Monday

    Time Temperature Precipitation Wind Pressure Humidity
    00:00 +23°C° 0.1 mm 2 mps 741 mmHg 89%
    01:00 +21°C° 0.2 mm 2 mps 741 mmHg 90%
    02:00 +21°C° 0.2 mm 2 mps 741 mmHg 91%
    03:00 +21°C° 0.2 mm 2 mps 741 mmHg 92%
    04:00 +21°C° 0.3 mm 2 mps 741 mmHg 92%
    05:00 +21°C° 0.3 mm 2 mps 741 mmHg 91%
    06:00 +23°C° 0.3 mm 2 mps 741 mmHg 90%
    07:00 +24°C° 0.1 mm 2 mps 741 mmHg 86%
    08:00 +26°C° 0.1 mm 3 mps 741 mmHg 81%
    09:00 +27°C° 0.1 mm 3 mps 741 mmHg 76%
    10:00 +28°C° 1.5 mm 3 mps 741 mmHg 73%
    11:00 +28°C° 1.5 mm 3 mps 741 mmHg 70%
    12:00 +29°C° 1.5 mm 3 mps 742 mmHg 66%
    13:00 +29°C° 0.6 mm 3 mps 742 mmHg 65%
    14:00 +29°C° 0.6 mm 3 mps 742 mmHg 64%
    15:00 +30°C° 0.6 mm 2 mps 742 mmHg 63%
    16:00 +29°C° 1.7 mm 3 mps 742 mmHg 68%
    17:00 +28°C° 1.7 mm 3 mps 742 mmHg 74%
    18:00 +27°C° 1.7 mm 4 mps 742 mmHg 80%
    19:00 +26°C° 0.2 mm 3 mps 742 mmHg 83%
    20:00 +25°C° 0.2 mm 3 mps 742 mmHg 86%
    21:00 +24°C° 0.2 mm 3 mps 743 mmHg 89%
    22:00 +22°C° 0 mm 3 mps 743 mmHg 90%
    23:00 +22°C° 0 mm 3 mps 743 mmHg 91%

    24 July, Tuesday

    Time Temperature Precipitation Wind Pressure Humidity
    00:00 +21°C° 0 mm 4 mps 743 mmHg 92%
    01:00 +21°C° 0 mm 3 mps 743 mmHg 92%
    02:00 +21°C° 0 mm 3 mps 743 mmHg 93%
    03:00 +20°C° 0 mm 3 mps 743 mmHg 93%
    04:00 +20°C° 0.2 mm 3 mps 743 mmHg 93%
    05:00 +20°C° 0.2 mm 3 mps 744 mmHg 92%
    06:00 +21°C° 0.2 mm 3 mps 744 mmHg 91%
    07:00 +22°C° 0 mm 3 mps 744 mmHg 87%
    08:00 +24°C° 0 mm 3 mps 744 mmHg 83%
    09:00 +25°C° 0 mm 4 mps 745 mmHg 78%
    10:00 +26°C° 0.6 mm 4 mps 745 mmHg 75%
    11:00 +27°C° 0.6 mm 4 mps 745 mmHg 72%
    12:00 +28°C° 0.6 mm 4 mps 745 mmHg 69%
    13:00 +28°C° 0.3 mm 4 mps 745 mmHg 70%
    14:00 +28°C° 0.3 mm 5 mps 745 mmHg 70%
    15:00 +28°C° 0.3 mm 5 mps 745 mmHg 71%
    16:00 +27°C° 0.4 mm 4 mps 746 mmHg 73%
    17:00 +27°C° 0.4 mm 3 mps 746 mmHg 75%
    18:00 +27°C° 0.4 mm 2 mps 746 mmHg 77%
    19:00 +26°C° 0.1 mm 2 mps 746 mmHg 78%
    20:00 +25°C° 0.1 mm 2 mps 746 mmHg 79%
    21:00 +24°C° 0.1 mm 2 mps 747 mmHg 80%
    22:00 +23°C° 0 mm 2 mps 747 mmHg 81%
    23:00 +23°C° 0 mm 2 mps 747 mmHg 83%
    Show more